Regional Weather Roundup
Issued by NWS

Home | Current Version | Previous Version | Text Only | Print | Product List | Glossary On
Versions: 1 2 3 4 5 6 7 8 9 10 11 12 13 14 15 16 17 18 19 20 21 22 23 24 25 26 27 28 29 30 31 32 33 34 35 36 37 38 39 40 41 42 43 44 45 46 47 48 49 50
000
ASUS43 KDMX 110101
RWRIA

WEATHER ROUNDUP FOR IOWA
NATIONAL WEATHER SERVICE DES MOINES IA
700 PM CST SAT DEC 10 2016

NOTE: "FAIR" INDICATES FEW OR NO CLOUDS BELOW 12,000 FEET WITH NO
SIGNIFICANT WEATHER AND/OR OBSTRUCTIONS TO VISIBILITY.

* - THESE STATIONS ARE NOT NWS STATIONS...THUS NOT UNDER NWS
QUALITY CONTROL.  THEY ALSO DO NOT REPORT WEATHER SUCH
AS PRECIPITATION OR FOG.

IAZ001>003-012>014-020>022-031>034-043>046-110200-
   NORTHWEST IOWA

CITY           SKY/WX    TMP DP  RH WIND       PRES   REMARKS
CARROLL *      CLOUDY    23  21  93 SE16G22   30.06F WCI  10
CHEROKEE *     CLOUDY    22  20  93 SE10G17   30.05R WCI  11
DENISON *      CLOUDY    23  19  86 SE12G18   30.01F WCI  12
LE MARS *      CLOUDY    23  19  86 SE14G21   30.03F WCI  11
ORANGE CITY *  CLOUDY    21  19  93 SE7G18    30.02F WCI  13
SHELDON *      CLOUDY    19  19 100 E21       30.01F WCI   3
SIOUX CITY     CLOUDY    27  20  75 SE14      30.02F WCI  16
SPENCER        FLURRIES  20  18  92 SE12G17   30.06F WCI   8
STORM LAKE *   CLOUDY    21  19  93 SE20G26   30.04S WCI   6
$$

IAZ055>058-069>071-079>083-090>094-110200-
   SOUTHWEST IOWA

CITY           SKY/WX    TMP DP  RH WIND       PRES   REMARKS
ATLANTIC *     CLOUDY    28  19  69 SE10      30.04F WCI  19
AUDUBON *      CLOUDY    25  19  80 SE10G17   30.04F WCI  15
CLARINDA *     CLOUDY    30  19  64 S9        30.06F WCI  22
COUNCIL BLFS * CLOUDY    30  18  59 SE14      30.02S WCI  20
CRESTON *      CLOUDY    28  18  64 SE14      30.06F WCI  17
HARLAN  *      CLOUDY    27  21  80 SE10      30.06F WCI  17
LAMONI         CLOUDY    30  16  56 SE14      30.09F WCI  19
RED OAK *      CLOUDY    30  18  59 SE10G18   30.04F WCI  21
SHENANDOAH *   CLOUDY    32  19  59 SE14      30.04F WCI  22
$$

IAZ047>049-059>061-072>074-084-110200-
   CENTRAL IOWA

CITY           SKY/WX    TMP DP  RH WIND       PRES   REMARKS
AMES           CLOUDY    23  20  88 SE13      30.13F WCI  11
ANKENY *       CLOUDY    23  19  86 SE12G17   30.14F WCI  12
BOONE *        CLOUDY    23  19  86 SE18      30.09F WCI   9
CHARITON *     CLOUDY    27  18  69 SE12      30.10F WCI  16
DES MOINES     CLOUDY    25  18  74 E10G22    30.12F WCI  15
GRINNELL*      CLOUDY    22  20  89 E16       30.17F WCI   9
KNOXVILLE *    CLOUDY    25  18  74 E9        30.12F WCI  15
MARSHALLTOWN   CLOUDY    22  19  89 SE16      30.15F WCI   8
NEWTON *       CLOUDY    23  19  86 E14G20    30.15F WCI  11
PELLA *        CLOUDY    24  19  81 SE10      30.16F WCI  14
PERRY *        CLOUDY    24  22  91 E13       30.10F WCI  13
$$

IAZ004>006-015-016-023>025-035-036-110200-
   NORTH CENTRAL IOWA

CITY           SKY/WX    TMP DP  RH WIND       PRES   REMARKS
ALGONA *       LGT SNOW  21  19  93 SE14      30.10F WCI   8
CLARION *      CLOUDY    21  19  93 SE18G25   30.12F WCI   6
ESTHERVILLE    LGT SNOW  17  15  92 E17       30.09F FOG     WCI   1
FORT DODGE *   CLOUDY    21  18  86 SE16G22   30.11F WCI   7
MASON CITY     LGT SNOW  19  15  84 SE13      30.17F FOG     WCI   6
WEBSTER CITY * CLOUDY    23  21  93 SE17      30.09F WCI   9
IOWA FALLS *   CLOUDY    22  19  89 SE15      30.15F WCI   9
$$

IAZ007>011-017>019-026>030-037>042-050>054-066-110200-
   NORTHEAST IOWA

CITY           SKY/WX    TMP DP  RH WIND       PRES   REMARKS
CEDAR RAPIDS   CLOUDY    22  20  92 SE12      30.22F WCI  10
CHARLES CITY * LGT SNOW  19  18  93 E14       30.19F WCI   6
CLINTON *      FLURRIES  22  20  92 SE16      30.29F WCI   8
DECORAH *      LGT SNOW  18  14  86 E8        30.21F WCI   7
DUBUQUE        CLOUDY    20  17  88 SE9       30.24F WCI   9
MONTICELLO *   CLOUDY    21  19  93 SE13      30.24F WCI   9
OELWEIN *      CLOUDY    19  19 100 SE14      30.21F WCI   6
WATERLOO       CLOUDY    21  17  84 SE15      30.19F WCI   8
$$

IAZ064-065-067-068-078-110200-
   EAST CENTRAL IOWA

CITY           SKY/WX    TMP DP  RH WIND       PRES   REMARKS
DAVENPORT      FLURRIES  22  19  89 SE13      30.28F WCI  10
IOWA CITY      CLOUDY    24  20  84 SE12      30.24F WCI  13
MUSCATINE *    CLOUDY    25  19  80 SE12      30.27F WCI  14
QUAD CITIES    CLOUDY    24  19  81 E12       30.29F WCI  13
$$

IAZ062-063-075>077-085>089-095>099-110200-
   SOUTHEAST IOWA

CITY           SKY/WX    TMP DP  RH WIND       PRES   REMARKS
BURLINGTON     CLOUDY    25  20  81 E8        30.24F WCI  16
FAIRFIELD *    CLOUDY    25  18  74 SE12      30.19F WCI  14
FORT MADISON * CLOUDY    27  16  63 SE10      30.24F WCI  17
KEOKUK *       CLOUDY    28  18  64 SE12      30.22F WCI  18
OSKALOOSA *    CLOUDY    24  20  83 SE14      30.18F WCI  12
CENTERVILLE *  CLOUDY    28  16  59 SE13      30.14F WCI  18
OTTUMWA        CLOUDY    26  16  65 SE10      30.17F WCI  16
WASHINGTON *   CLOUDY    23  21  93 SE15      30.23F WCI  10
$$

ABBREVIATIONS USED IN REMARKS
   TC - TEMPERATURES IN CELSIUS
  WCI - WIND CHILL INDEX
   HX - HEAT INDEX
  VSB - VISIBILITY
$$




USA.gov is the U.S. government's official web portal to all federal, state and local government web resources and services.